Vorticity
9 10 13 18 15 9 9 9 10 12 13 16 15 15 14 12 11 11 9 12 15 14
8 10 14 19 13 10 9 8 10 12 14 15 14 15 14 12 10 10 9 10 14 13
9 10 14 18 13 9 9 9 10 13 14 15 15 15 15 12 10 9 8 8 11 13
9 10 14 18 13 9 9 8 9 12 14 15 14 15 14 13 10 9 8 8 10 13
9 10 13 18 13 10 9 8 8 12 14 16 13 16 15 13 12 11 10 10 9 12
8 9 12 17 14 10 9 8 8 10 13 16 14 14 15 13 10 9 9 10 12 12
9 9 10 16 15 12 10 8 7 9 12 14 15 13 12 12 10 9 10 11 13 15
9 8 9 15 17 13 10 9 7 8 8 12 14 16 12 11 9 9 10 11 12 14
9 9 8 13 15 15 11 8 9 7 7 9 10 13 13 13 10 10 10 12 13 14
9 9 8 10 14 15 14 10 8 9 7 7 8 9 11 16 11 10 9 10 12 14
10 10 8 8 12 14 14 12 10 8 9 8 6 8 9 13 12 11 10 9 11 13
10 10 9 8 9 15 14 13 12 9 8 9 11 7 8 11 12 13 11 11 11 12
9 10 9 8 7 9 16 14 12 11 10 8 8 13 9 7 12 12 15 12 11 11
8 10 10 8 7 7 10 15 14 12 12 10 9 9 10 12 8 9 11 14 14 10
Height
3068 3059 3050 3041 3033 3025 3018 3011 3003 2996 2989 2982 2975 2970 2966 2963 2961 2960 2958 2956 2954 2953
3068 3059 3050 3041 3033 3026 3020 3013 3005 2998 2991 2984 2977 2972 2968 2965 2963 2962 2961 2959 2957 2955
3069 3060 3050 3042 3035 3028 3022 3015 3008 3001 2994 2987 2980 2974 2971 2968 2966 2965 2964 2962 2960 2957
3069 3060 3050 3043 3036 3030 3024 3018 3011 3004 2997 2991 2983 2978 2974 2971 2969 2968 2966 2965 2963 2961
3070 3060 3052 3045 3038 3032 3026 3020 3014 3007 3001 2995 2989 2982 2978 2975 2972 2970 2969 2968 2967 2964
3071 3062 3054 3047 3040 3035 3029 3023 3017 3012 3005 2999 2993 2988 2983 2979 2976 2973 2971 2969 2967 2965
3072 3064 3056 3049 3043 3037 3031 3026 3020 3015 3009 3003 2998 2993 2988 2984 2980 2977 2974 2971 2969 2966
3074 3066 3059 3052 3046 3040 3034 3028 3023 3019 3014 3008 3003 2998 2993 2989 2985 2980 2976 2973 2970 2968
3076 3069 3062 3055 3049 3043 3037 3032 3027 3022 3018 3013 3007 3002 2998 2995 2990 2986 2981 2978 2974 2971
3078 3072 3066 3059 3053 3047 3042 3036 3030 3025 3022 3017 3012 3008 3003 3000 2995 2991 2987 2982 2978 2974
3080 3075 3069 3063 3056 3050 3045 3040 3034 3029 3025 3021 3018 3013 3008 3005 3000 2996 2992 2987 2983 2980
3082 3077 3072 3067 3060 3054 3048 3043 3038 3033 3028 3025 3022 3018 3014 3010 3005 3002 2998 2994 2989 2985
3083 3078 3074 3070 3064 3058 3051 3046 3042 3037 3033 3028 3025 3023 3019 3015 3011 3006 3003 2999 2996 2992
3085 3080 3076 3071 3066 3061 3055 3050 3045 3041 3036 3032 3028 3026 3023 3019 3016 3012 3008 3005 3001 2997